Time,TemperatureF,DewpointF,PressureIn,WindDirection,WindDirectionDegrees,WindSpeedMPH,WindSpeedGustMPH,Humidity,HourlyPrecipIn,Conditions,Clouds,dailyrainin,SoftwareType,DateUTC
2013-08-23 11:22:00,76.2,58.9,29.92,NNW,342,10.0,10.0,55,0.00,,,0.00,Wunderground v.1.15,2013-08-23 15:22:00,
2013-08-23 11:30:00,76.7,57.7,29.92,North,1,10.0,12.0,52,0.00,,,0.00,Wunderground v.1.15,2013-08-23 15:30:00,
2013-08-23 11:40:00,77.0,56.9,29.92,NW,320,9.0,13.0,50,0.00,,,0.00,Wunderground v.1.15,2013-08-23 15:40:00,
2013-08-23 11:51:00,77.1,56.0,29.92,NW,317,8.0,17.0,48,0.00,,,0.00,weatherlink.com 1.10,2013-08-23 15:51:00,
2013-08-23 12:06:00,77.2,56.0,29.92,NW,311,9.0,18.0,49,0.00,,,0.00,weatherlink.com 1.10,2013-08-23 16:06:00,
2013-08-23 12:21:00,77.6,57.0,29.92,NNW,334,10.0,17.0,50,0.00,,,0.00,weatherlink.com 1.10,2013-08-23 16:21:00,
2013-08-23 12:36:00,77.7,56.0,29.92,NNW,340,12.0,18.0,47,0.00,,,0.00,weatherlink.com 1.10,2013-08-23 16:36:00,
2013-08-23 12:51:00,77.2,57.0,29.92,NW,310,9.0,16.0,50,0.00,,,0.00,weatherlink.com 1.10,2013-08-23 16:51:00,
2013-08-23 13:06:00,77.8,57.0,29.93,NNW,328,9.0,18.0,49,0.00,,,0.00,weatherlink.com 1.10,2013-08-23 17:06:00,
2013-08-23 13:21:00,78.1,59.0,29.93,NW,323,8.0,14.0,52,0.00,,,0.00,weatherlink.com 1.10,2013-08-23 17:21:00,
2013-08-23 13:36:00,78.2,59.0,29.93,NNW,339,10.0,16.0,52,0.00,,,0.00,weatherlink.com 1.10,2013-08-23 17:36:00,
2013-08-23 13:51:00,78.1,58.0,29.93,NW,317,7.0,17.0,51,0.00,,,0.00,weatherlink.com 1.10,2013-08-23 17:51:00,
2013-08-23 14:06:00,78.1,58.0,29.93,NNW,338,11.0,16.0,50,0.00,,,0.00,weatherlink.com 1.10,2013-08-23 18:06:00,
2013-08-23 14:21:00,78.1,56.0,29.94,NW,316,12.0,16.0,47,0.00,,,0.00,weatherlink.com 1.10,2013-08-23 18:21:00,
2013-08-23 14:36:00,78.0,56.0,29.93,NW,318,9.0,14.0,47,0.00,,,0.00,weatherlink.com 1.10,2013-08-23 18:36:00,
2013-08-23 14:51:00,78.0,57.0,29.94,NW,326,8.0,15.0,49,0.00,,,0.00,weatherlink.com 1.10,2013-08-23 18:51:00,
2013-08-23 15:06:00,77.9,57.0,29.93,NW,306,13.0,14.0,49,0.00,,,0.00,weatherlink.com 1.10,2013-08-23 19:06:00,
2013-08-23 15:21:00,78.0,58.0,29.93,NNW,340,7.0,11.0,50,0.00,,,0.00,weatherlink.com 1.10,2013-08-23 19:21:00,
2013-08-23 15:36:00,78.2,59.0,29.93,NW,317,13.0,16.0,51,0.00,,,0.00,weatherlink.com 1.10,2013-08-23 19:36:00,
2013-08-23 15:51:00,78.3,58.0,29.93,NW,323,8.0,14.0,49,0.00,,,0.00,weatherlink.com 1.10,2013-08-23 19:51:00,
2013-08-23 16:06:00,78.2,58.0,29.93,NNW,333,6.0,12.0,50,0.00,,,0.00,weatherlink.com 1.10,2013-08-23 20:06:00,
2013-08-23 16:21:00,78.6,58.0,29.93,NNE,18,10.0,13.0,50,0.00,,,0.00,weatherlink.com 1.10,2013-08-23 20:21:00,
2013-08-23 16:36:00,78.6,57.0,29.93,North,358,8.0,15.0,48,0.00,,,0.00,weatherlink.com 1.10,2013-08-23 20:36:00,
2013-08-23 16:51:00,78.8,58.0,29.93,North,10,5.0,14.0,49,0.00,,,0.00,weatherlink.com 1.10,2013-08-23 20:51:00,
2013-08-23 17:06:00,78.6,58.0,29.93,North,6,6.0,14.0,49,0.00,,,0.00,weatherlink.com 1.10,2013-08-23 21:06:00,
2013-08-23 17:21:00,78.6,59.0,29.94,North,350,6.0,8.0,51,0.00,,,0.00,weatherlink.com 1.10,2013-08-23 21:21:00,
2013-08-23 17:36:00,78.6,58.0,29.94,NNW,340,3.0,12.0,49,0.00,,,0.00,weatherlink.com 1.10,2013-08-23 21:36:00,
2013-08-23 17:51:00,78.5,57.0,29.94,NNE,30,9.0,14.0,47,0.00,,,0.00,weatherlink.com 1.10,2013-08-23 21:51:00,
2013-08-23 18:06:00,78.2,57.0,29.94,NNE,25,7.0,9.0,49,0.00,,,0.00,weatherlink.com 1.10,2013-08-23 22:06:00,
2013-08-23 18:21:00,78.4,58.0,29.94,NNE,13,8.0,12.0,50,0.00,,,0.00,weatherlink.com 1.10,2013-08-23 22:21:00,
2013-08-23 18:36:00,78.7,59.0,29.95,North,1,4.0,15.0,51,0.00,,,0.00,weatherlink.com 1.10,2013-08-23 22:36:00,
2013-08-23 18:51:00,78.4,56.0,29.95,North,7,7.0,12.0,47,0.00,,,0.00,weatherlink.com 1.10,2013-08-23 22:51:00,
2013-08-23 19:06:00,78.1,56.0,29.96,NNW,347,9.0,12.0,47,0.00,,,0.00,weatherlink.com 1.10,2013-08-23 23:06:00,
2013-08-23 19:21:00,77.6,57.0,29.96,NNW,348,5.0,13.0,49,0.00,,,0.00,weatherlink.com 1.10,2013-08-23 23:21:00,
2013-08-23 19:36:00,76.8,57.0,29.97,North,355,6.0,11.0,50,0.00,,,0.00,weatherlink.com 1.10,2013-08-23 23:36:00,
2013-08-23 19:51:00,76.0,58.0,29.98,NW,316,4.0,8.0,54,0.00,,,0.00,weatherlink.com 1.10,2013-08-23 23:51:00,
2013-08-23 20:07:00,75.2,58.0,29.98,North,354,3.0,7.0,55,0.00,,,0.00,weatherlink.com 1.10,2013-08-24 00:07:00,
2013-08-23 20:22:00,74.6,58.0,29.99,NNW,336,3.0,5.0,57,0.00,,,0.00,weatherlink.com 1.10,2013-08-24 00:22:00,
2013-08-23 20:37:00,74.2,58.0,29.99,NNW,330,2.0,5.0,58,0.00,,,0.00,weatherlink.com 1.10,2013-08-24 00:37:00,
2013-08-23 20:52:00,73.5,58.0,30.00,NNW,327,2.0,4.0,58,0.00,,,0.00,weatherlink.com 1.10,2013-08-24 00:52:00,
2013-08-23 21:07:00,72.8,58.0,30.00,North,358,3.0,3.0,61,0.00,,,0.00,weatherlink.com 1.10,2013-08-24 01:07:00,
2013-08-23 21:22:00,72.7,58.0,30.01,NNW,334,3.0,6.0,60,0.00,,,0.00,weatherlink.com 1.10,2013-08-24 01:22:00,
2013-08-23 21:37:00,72.4,58.0,30.01,NW,326,2.0,4.0,60,0.00,,,0.00,weatherlink.com 1.10,2013-08-24 01:37:00,
2013-08-23 21:52:00,72.1,57.0,30.02,North,354,1.0,5.0,60,0.00,,,0.00,weatherlink.com 1.10,2013-08-24 01:52:00,
2013-08-23 22:07:00,72.0,57.0,30.02,NW,326,3.0,6.0,59,0.00,,,0.00,weatherlink.com 1.10,2013-08-24 02:07:00,
2013-08-23 22:22:00,71.6,55.0,30.02,NNW,337,4.0,5.0,57,0.00,,,0.00,weatherlink.com 1.10,2013-08-24 02:22:00,
2013-08-23 22:37:00,71.5,56.0,30.02,NW,323,4.0,5.0,58,0.00,,,0.00,weatherlink.com 1.10,2013-08-24 02:37:00,
2013-08-23 22:52:00,71.1,55.0,30.03,NW,314,6.0,7.0,58,0.00,,,0.00,weatherlink.com 1.10,2013-08-24 02:52:00,
2013-08-23 23:07:00,70.9,55.0,30.03,North,352,3.0,8.0,57,0.00,,,0.00,weatherlink.com 1.10,2013-08-24 03:07:00,
2013-08-23 23:22:00,70.8,55.0,30.04,NW,314,4.0,7.0,58,0.00,,,0.00,weatherlink.com 1.10,2013-08-24 03:22:00,
2013-08-23 23:37:00,71.0,56.0,30.04,North,1,4.0,7.0,60,0.00,,,0.00,weatherlink.com 1.10,2013-08-24 03:37:00,
2013-08-23 23:52:00,71.9,57.0,30.05,NE,37,6.0,13.0,60,0.00,,,0.00,weatherlink.com 1.10,2013-08-24 03:52:00,